Location: Isles
(48.9125°N, 2.8272°E)
Time: 13:02:27
(UTC+00:00)

YAOGAN 1 - Pass Details

Date: 03 February 2023
Orbit: 616 x 618 km, 97.8° (Epoch: 25 March)

Event Time Altitude Azimuth Distance (km) Brightness Sun altitude
Rises 18:05:46 0° 152° (SSE) 2,882 5.8 -12.8°
Reaches altitude 10° 18:07:58 10° 148° (SSE) 1,982 4.9 -13.2°
Maximum altitude 18:12:10 54° 71° (ENE) 756 2.6 -13.9°
Drops below altitude 10° 18:16:24 10° 355° (N) 1,998 5.1 -14.6°
Sets 18:18:38 0° 351° (N) 2,909 6.0 -14.9°
